Regional Weather Roundup
Issued by NWS Charleston, WV

Home | Current Version | Previous Version | Text Only | Print | Product List | Glossary Off
Versions: 1 2 3 4 5 6 7 8 9 10 11 12 13 14 15 16 17 18 19 20 21 22 23 24 25 26 27 28 29 30 31 32 33 34 35 36 37 38 39 40 41 42 43 44 45 46 47 48 49 50

000
ASUS41 KRLX 140410
RWRRLX
West Virginia Regional Weather Roundup
National Weather Service Charleston WV
1200 AM EDT MON JUL 14 2014

Note: "fair" indicates few or no clouds below 12,000 feet with no
significant weather and/or obstructions to visibility.

WVZ003-140500-
Northern Panhandle of West Virginia

CITY           SKY/WX    TMP DP  RH WIND       PRES   REMARKS
WHEELING       CLOUDY    71  69  93 S7        29.96F
$$

WVZ009-140500-
Northwest West Virginia

CITY           SKY/WX    TMP DP  RH WIND       PRES   REMARKS
PARKERSBURG    LGT RAIN  71  70  96 S5        29.97F
$$

WVZ006-140500-
Western West Virginia

CITY           SKY/WX    TMP DP  RH WIND       PRES   REMARKS
HUNTINGTON     TSTM      75  71  87 SW3       29.98R FOG
$$

WVZ015-140500-
West Central West Virginia

CITY           SKY/WX    TMP DP  RH WIND       PRES   REMARKS
CHARLESTON     MOCLDY    74  72  93 E7        29.97S
$$

WVZ031-140500-
North Central West Virginia

CITY           SKY/WX    TMP DP  RH WIND       PRES   REMARKS
CLARKSBURG     RAIN      69  67  93 S5        30.01R FOG
MORGANTOWN     RAIN      71  67  87 S6        30.01R FOG
$$

WVZ035-042-045-140500-
South Central West Virginia

CITY           SKY/WX    TMP DP  RH WIND       PRES   REMARKS
BECKLEY        PTCLDY    73  64  73 SW6       30.08F
BLUEFIELD      MOCLDY    74  63  68 SW7       30.12S
LEWISBURG      PTCLDY    73  64  72 CALM      30.08F
$$

WVZ047-140500-
Northern Mountains of West Virginia

CITY           SKY/WX    TMP DP  RH WIND       PRES   REMARKS
ELKINS         HVY RAIN  68  65  90 CALM      30.07R FOG
$$

WVZ052-140500-
Eastern Panhandle of West Virginia

CITY           SKY/WX    TMP DP  RH WIND       PRES   REMARKS
MARTINSBURG    CLOUDY    71  67  87 CALM      29.96F
PETERSBURG     CLOUDY    70  66  87 CALM      29.99F FOG
$$


USA.gov is the U.S. government's official web portal to all federal, state and local government web resources and services.